DW2047 Weather Reports


time (UTC)temp
F
wind
direction
speed
knots
gust
knots
rain 1hr
in
rain 24hr
in
rain mn
in
humidity
%
barometer
mb
20260904173555 91 151 5.2 9.6 0.00 0.06 0.06 62 1014.2
20260904173043 90 138 5.2 9.6 0.00 0.06 0.06 60 1014.3
20260904172514 90 138 4.3 10.4 0.00 0.06 0.06 61 1014.3
20260904172057 90 171 3.5 10.4 0.00 0.06 0.06 62 1014.3
20260904171539 90 155 0.9 6.1 0.00 0.06 0.06 63 1014.4
20260904171015 89 178 2.6 8.7 0.00 0.06 0.06 64 1014.4
20260904170556 89 130 3.5 8.7 0.00 0.06 0.06 63 1014.5
20260904170047 89 218 0.9 7.0 0.00 0.06 0.06 64 1014.5
20260904165515 89 165 1.7 8.7 0.00 0.06 0.06 66 1014.5
20260904165057 89 148 3.5 8.7 0.00 0.06 0.06 65 1014.5
20260904164540 89 140 1.7 7.8 0.00 0.06 0.06 65 1014.5
20260904164017 88 148 1.7 8.7 0.00 0.06 0.06 64 1014.4
20260904163558 88 145 4.3 8.7 0.00 0.06 0.06 64 1014.4
20260904163051 88 138 3.5 8.7 0.00 0.06 0.06 67 1014.4
20260904162518 87 141 5.2 8.7 0.00 0.06 0.06 67 1014.4
20260904162059 87 133 4.3 8.7 0.00 0.06 0.06 69 1014.3
20260904161542 87 177 3.5 7.8 0.00 0.06 0.06 69 1014.3
20260904161019 87 144 3.5 7.0 0.00 0.06 0.06 71 1014.4
20260904160601 86 225 1.7 7.0 0.00 0.06 0.06 72 1014.4
20260904160045 86 167 0.9 7.0 0.00 0.06 0.06 75 1014.4
20260904155520 85 188 1.7 8.7 0.00 0.06 0.06 75 1014.3
20260904155102 85 185 2.6 8.7 0.00 0.06 0.06 76 1014.4
20260904154547 84 143 5.2 8.7 0.00 0.06 0.06 77 1014.4
20260904154024 83 141 1.7 7.8 0.00 0.06 0.06 81 1014.4
20260904153606 83 139 4.3 7.0 0.00 0.06 0.06 80 1014.3
20260904153101 83 162 1.7 6.1 0.00 0.06 0.06 82 1014.4
20260904152524 83 144 3.5 7.8 0.00 0.06 0.06 81 1014.4
20260904152000 82 211 2.6 5.2 0.00 0.06 0.06 83 1014.3
20260904151552 82 130 1.7 4.3 0.00 0.06 0.06 85 1014.3
20260904151026 81 208 0.9 7.0 0.00 0.06 0.06 85 1014.3
20260904150502 81 170 1.7 7.0 0.00 0.06 0.06 87 1014.3
20260904150050 81 247 0.9 6.1 0.00 0.06 0.06 87 1014.2
20260904145526 80 155 0.0 4.3 0.00 0.06 0.06 89 1014.2
20260904145004 80 197 0.9 5.2 0.00 0.06 0.06 89 1014.2
20260904144552 80 135 1.7 5.2 0.00 0.06 0.06 90 1014.1
20260904144028 80 187 0.9 3.5 0.00 0.06 0.06 90 1014.1
20260904143505 80 167 1.7 7.0 0.00 0.06 0.06 91 1014.1
20260904143054 79 167 2.6 7.0 0.00 0.06 0.06 91 1014.1
20260904142530 79 146 1.7 6.1 0.00 0.06 0.06 91 1014.1
20260904142006 79 165 1.7 7.0 0.00 0.06 0.06 91 1014.0
20260904141556 79 155 1.7 7.0 0.00 0.06 0.06 91 1014.0
20260904141033 79 178 0.9 3.5 0.01 0.06 0.06 91 1014.1
20260904140508 78 178 0.9 3.5 0.01 0.06 0.06 91 1014.0
20260904135535 78 178 0.0 2.6 0.02 0.06 0.06 91 1013.9
20260904135012 78 161 0.0 4.3 0.03 0.06 0.06 91 1013.8
20260904134608 78 254 0.9 4.3 0.04 0.06 0.06 91 1013.7
20260904134036 78 244 0.0 3.5 0.05 0.06 0.06 91 1013.7
20260904133510 78 194 0.9 3.5 0.05 0.06 0.06 91 1013.7
20260904133104 78 194 0.0 2.6 0.06 0.06 0.06 91 1013.7
20260904132537 78 194 0.9 2.6 0.06 0.06 0.06 91 1013.7
20260904132014 78 198 0.0 3.5 0.06 0.06 0.06 91 1013.8
20260904131603 78 198 0.0 2.6 0.06 0.06 0.06 91 1013.8
20260904131040 78 199 0.9 3.5 0.05 0.05 0.05 91 1013.8
20260904130515 78 202 0.9 3.5 0.05 0.05 0.05 91 1013.8
20260904130104 78 211 0.9 2.6 0.04 0.04 0.04 91 1013.9
20260904125541 78 138 0.0 0.0 0.04 0.04 0.04 91 1014.0
20260904125021 78 138 0.0 0.0 0.03 0.03 0.03 90 1014.0
20260904124502 78 138 0.0 0.0 0.02 0.02 0.02 90 1014.0
20260904124042 78 138 0.0 2.6 0.01 0.01 0.01 90 1014.0
20260904123519 78 138 0.0 3.5 0.01 0.01 0.01 90 1014.0
20260904123004 78 138 0.9 5.2 0.00 0.00 0.00 89 1014.0
20260904122546 79 153 1.7 5.2 0.00 0.00 0.00 89 1014.0
20260904122022 79 143 0.9 3.5 0.00 0.00 0.00 89 1013.9
20260904121506 79 143 0.9 3.5 0.00 0.00 0.00 89 1013.9
20260904121052 79 143 0.9 4.3 0.00 0.00 0.00 89 1013.9
20260904120525 79 143 1.7 4.3 0.00 0.00 0.00 88 1013.8
20260904120016 79 134 1.7 4.3 0.00 0.00 0.00 88 1013.7
20260904115554 79 74 1.7 3.5 0.00 0.00 0.00 88 1013.6
20260904115032 79 115 0.9 4.3 0.00 0.00 0.00 88 1013.5
20260904114517 79 144 0.0 5.2 0.00 0.00 0.00 88 1013.4
20260904114100 79 146 1.7 5.2 0.00 0.00 0.00 87 1013.3
20260904113535 79 150 0.0 7.8 0.00 0.00 0.00 87 1013.2
20260904113024 79 152 0.9 5.2 0.00 0.00 0.00 87 1013.1
20260904112602 79 158 1.7 4.3 0.00 0.00 0.00 87 1013.0
20260904112039 80 151 0.9 4.3 0.00 0.00 0.00 86 1012.9
20260904111524 80 151 1.7 4.3 0.00 0.00 0.00 86 1012.8
20260904111002 80 151 0.0 6.1 0.00 0.00 0.00 85 1012.8
20260904110543 80 153 0.9 6.1 0.00 0.00 0.00 85 1012.8
20260904110027 80 148 2.6 5.2 0.00 0.00 0.00 85 1012.8
20260904105504 80 180 0.9 6.1 0.00 0.00 0.00 85 1012.8
20260904105044 80 159 2.6 7.8 0.00 0.00 0.00 85 1012.7
20260904104531 80 153 2.6 8.7 0.00 0.00 0.00 85 1012.7
20260904104007 80 147 2.6 8.7 0.00 0.00 0.00 85 1012.7
20260904103546 80 146 3.5 7.8 0.00 0.00 0.00 85 1012.6
20260904103031 80 140 3.5 7.0 0.00 0.00 0.00 85 1012.6
20260904102507 80 147 3.5 7.0 0.00 0.00 0.00 85 1012.5
20260904102048 80 154 3.5 7.0 0.00 0.00 0.00 85 1012.6
20260904101535 80 149 3.5 6.1 0.00 0.00 0.00 85 1012.6
20260904101010 80 142 1.7 6.1 0.00 0.00 0.00 85 1012.6
20260904100555 80 154 1.7 6.1 0.00 0.00 0.00 85 1012.6
20260904100044 80 126 1.7 6.1 0.00 0.00 0.00 85 1012.5
20260904095516 80 146 1.7 8.7 0.00 0.00 0.00 84 1012.4
20260904095059 80 140 4.3 8.7 0.00 0.00 0.00 84 1012.3
20260904094543 80 165 1.7 7.0 0.00 0.00 0.00 84 1012.3
20260904094019 80 150 1.7 9.6 0.00 0.00 0.00 84 1012.2
20260904093603 80 144 1.7 9.6 0.00 0.00 0.00 84 1012.3
20260904093058 80 141 3.5 7.0 0.00 0.00 0.00 84 1012.3
20260904092525 80 147 2.6 7.0 0.00 0.00 0.00 84 1012.2
20260904092104 80 168 3.5 7.8 0.00 0.00 0.00 84 1012.2
20260904091549 80 140 3.5 9.6 0.00 0.00 0.00 84 1012.3
20260904091025 80 143 2.6 7.8 0.00 0.00 0.00 83 1012.3
20260904090502 80 124 2.6 9.6 0.00 0.00 0.00 83 1012.3
20260904090053 80 144 2.6 9.6 0.00 0.00 0.00 83 1012.3
20260904085529 80 137 1.7 7.8 0.00 0.00 0.00 84 1012.4
20260904085007 80 150 3.5 7.8 0.00 0.00 0.00 84 1012.4
20260904084557 80 144 2.6 8.7 0.00 0.00 0.00 84 1012.4
20260904084033 80 149 3.5 7.0 0.00 0.00 0.00 84 1012.4
20260904083509 80 142 1.7 8.7 0.00 0.00 0.00 84 1012.4
20260904083100 80 148 3.5 9.6 0.00 0.00 0.00 83 1012.4
20260904082536 81 130 2.6 9.6 0.00 0.00 0.00 83 1012.4
20260904082013 81 133 3.5 8.7 0.00 0.00 0.00 83 1012.5
20260904081604 81 159 3.5 8.7 0.00 0.00 0.00 83 1012.5
20260904081041 81 137 3.5 8.7 0.00 0.00 0.00 83 1012.5
20260904080517 81 135 2.6 10.4 0.00 0.00 0.00 83 1012.5
20260904080005 81 131 4.3 10.4 0.00 0.00 0.00 83 1012.5
20260904075546 80 157 2.6 7.8 0.00 0.00 0.00 83 1012.4
20260904075022 80 136 4.3 7.8 0.00 0.00 0.00 83 1012.4
20260904074508 80 175 3.5 7.8 0.00 0.00 0.00 83 1012.4
20260904074053 80 147 2.6 7.8 0.00 0.00 0.00 82 1012.3
20260904073526 81 139 3.5 8.7 0.00 0.00 0.00 82 1012.4
20260904073034 81 171 2.6 5.2 0.00 0.00 0.00 82 1012.5
20260904072554 81 140 1.7 7.0 0.00 0.00 0.00 82 1012.5
20260904072030 80 151 3.5 9.6 0.00 0.00 0.00 82 1012.5
20260904071517 80 130 4.3 9.6 0.00 0.00 0.00 83 1012.5
20260904071059 80 154 3.5 9.6 0.00 0.00 0.00 82 1012.6
20260904070535 80 178 3.5 9.6 0.00 0.00 0.00 82 1012.7
20260904070022 80 133 2.6 7.8 0.00 0.00 0.00 82 1012.7
20260904065603 80 149 2.6 8.7 0.00 0.00 0.00 82 1012.7
20260904065039 80 161 3.5 10.4 0.00 0.00 0.00 82 1012.7
20260904064527 81 151 3.5 10.4 0.00 0.00 0.00 82 1012.8
20260904064106 81 144 2.6 8.7 0.00 0.00 0.00 82 1012.8
20260904063541 81 140 4.3 10.4 0.00 0.00 0.00 82 1012.7
20260904063028 81 153 4.3 10.4 0.00 0.00 0.00 82 1012.7
20260904062504 80 160 3.5 9.6 0.00 0.00 0.00 82 1012.6
20260904062046 80 142 5.2 9.6 0.00 0.00 0.00 82 1012.7
20260904061533 81 165 4.3 9.6 0.00 0.00 0.00 82 1012.7
20260904061009 81 163 4.3 10.4 0.00 0.00 0.00 82 1012.7
20260904060551 81 180 5.2 9.6 0.00 0.00 0.00 82 1012.7
20260904060035 81 129 4.3 9.6 0.00 0.00 0.00 81 1012.7
20260904055510 81 150 3.5 7.8 0.00 0.00 0.00 81 1012.7
20260904055052 81 159 4.3 8.7 0.00 0.00 0.00 81 1012.7
20260904054538 81 143 3.5 8.7 0.00 0.00 0.00 81 1012.6
20260904054018 80 154 3.5 9.6 0.00 0.00 0.00 82 1012.6
20260904053555 80 153 3.5 10.4 0.00 0.00 0.00 82 1012.6
20260904053052 80 136 4.3 11.3 0.00 0.00 0.00 82 1012.7
20260904052520 80 136 3.5 11.3 0.00 0.00 0.00 81 1012.6
20260904052103 80 135 1.7 10.4 0.00 0.00 0.00 81 1012.5
20260904051551 81 139 5.2 10.4 0.00 0.00 0.00 81 1012.5
20260904051025 81 142 5.2 10.4 0.00 0.00 0.00 81 1012.5
20260904050502 81 144 5.2 11.3 0.00 0.00 0.00 81 1012.6
20260904050056 80 133 4.3 11.3 0.00 0.00 0.00 81 1012.5
20260904045528 80 155 4.3 9.6 0.00 0.00 0.00 81 1012.4
20260904045005 80 141 2.6 8.7 0.00 0.00 0.00 81 1012.4
20260904044557 80 134 3.5 8.7 0.00 0.00 0.00 81 1012.4
20260904044033 80 169 3.5 7.8 0.00 0.00 0.00 81 1012.4
20260904043511 80 140 3.5 9.6 0.00 0.00 0.00 80 1012.4
20260904043103 80 139 5.2 9.6 0.00 0.00 0.00 80 1012.3
20260904042540 81 142 3.5 7.8 0.00 0.00 0.00 79 1012.4
20260904042017 81 153 3.5 11.3 0.00 0.00 0.00 79 1012.5
20260904041505 81 126 4.3 11.3 0.00 0.00 0.00 78 1012.5
20260904041046 81 153 4.3 7.8 0.00 0.00 0.00 78 1012.5
20260904040522 81 140 3.5 8.7 0.00 0.00 0.00 78 1012.6
20260904040011 81 125 3.5 7.0 0.00 0.00 0.00 78 1012.4
20260904035552 81 152 3.5 8.7 0.00 0.00 0.00 78 1012.4
20260904035029 81 146 5.2 8.7 0.00 0.00 0.00 77 1012.3
20260904034519 81 142 3.5 8.7 0.00 0.00 0.00 77 1012.4
20260904034058 81 144 3.5 12.2 0.00 0.00 0.00 76 1012.3
20260904033534 81 142 6.1 12.2 0.00 0.00 0.00 76 1012.3
20260904033033 82 141 2.6 9.6 0.00 0.00 0.00 75 1012.3
20260904032604 82 130 3.5 12.2 0.00 0.00 0.00 75 1012.2
20260904032041 82 134 3.5 12.2 0.00 0.00 0.00 75 1012.2
20260904031533 82 146 4.3 9.6 0.00 0.00 0.00 75 1012.2
20260904031009 82 169 3.5 7.0 0.00 0.00 0.00 74 1012.1
20260904030551 82 146 3.5 9.6 0.00 0.00 0.00 74 1012.1
20260904030038 82 136 4.3 9.6 0.00 0.00 0.00 73 1012.0
20260904025515 82 169 3.5 10.4 0.00 0.00 0.00 73 1011.9
20260904025056 82 150 3.5 12.2 0.00 0.00 0.00 73 1012.0
20260904024545 82 153 5.2 12.2 0.00 0.00 0.00 72 1012.0
20260904024020 82 125 3.5 10.4 0.00 0.00 0.00 72 1011.9
20260904023602 82 136 4.3 9.6 0.00 0.00 0.00 71 1011.8
20260904023050 83 145 4.3 10.4 0.00 0.00 0.00 70 1011.8
20260904022526 83 130 3.5 8.7 0.00 0.00 0.00 70 1011.7
20260904022002 83 149 2.6 8.7 0.00 0.00 0.00 69 1011.7
20260904021557 83 156 2.6 9.6 0.00 0.00 0.00 69 1011.7
20260904021033 83 153 3.5 9.6 0.00 0.00 0.00 69 1011.7
20260904020509 83 93 3.5 7.8 0.00 0.00 0.00 69 1011.6
20260904020126 83 151 4.3 9.6 0.00 0.00 0.00 69 1011.5
20260904015540 83 141 2.6 9.6 0.00 0.00 0.00 68 1011.3
20260904015016 83 142 4.3 9.6 0.00 0.00 0.00 68 1011.2
20260904014503 83 159 3.5 9.6 0.00 0.00 0.00 68 1011.2
20260904014044 83 134 6.1 9.6 0.00 0.00 0.00 68 1011.2
20260904013524 84 147 2.6 9.6 0.00 0.00 0.00 68 1011.1
20260904013016 84 135 4.3 11.3 0.00 0.00 0.00 68 1011.1
20260904012550 84 120 4.3 12.2 0.00 0.00 0.00 68 1011.2
20260904012027 84 88 5.2 10.4 0.00 0.00 0.00 68 1011.2
20260904011516 84 135 4.3 10.4 0.00 0.00 0.00 68 1011.1
20260904011059 84 129 4.3 12.2 0.00 0.00 0.00 68 1011.1
20260904010533 85 159 2.6 8.7 0.00 0.00 0.00 68 1011.0
20260904010022 85 110 3.5 7.8 0.00 0.00 0.00 68 1010.9
20260904005605 85 130 1.7 7.8 0.00 0.00 0.00 68 1010.8
20260904005040 85 94 2.6 8.7 0.00 0.00 0.00 67 1010.8
20260904004530 85 132 3.5 9.6 0.00 0.00 0.00 67 1010.8
20260904004005 85 111 4.3 11.3 0.00 0.00 0.00 67 1010.7
20260904003546 86 159 7.0 13.0 0.00 0.00 0.00 66 1010.8
20260904003039 86 140 6.1 13.0 0.00 0.00 0.00 66 1010.8
20260904002513 87 111 6.1 11.3 0.00 0.00 0.00 65 1010.8
20260904002055 87 134 3.5 9.6 0.00 0.00 0.00 65 1010.8
20260904001544 87 130 2.6 10.4 0.00 0.00 0.00 65 1010.7
20260904001020 88 135 3.5 13.0 0.00 0.00 0.00 65 1010.7
20260904000601 88 117 6.1 13.0 0.00 0.00 0.00 64 1010.7
20260904000050 88 132 4.3 13.9 0.00 0.00 0.00 64 1010.6
20260903235526 88 130 6.1 13.9 0.00 0.00 0.00 65 1010.6
20260903235003 88 104 7.0 13.0 0.00 0.00 0.00 65 1010.5
20260903234605 89 77 5.2 13.0 0.00 0.00 0.00 64 1010.5
20260903234034 89 126 6.1 13.0 0.00 0.00 0.00 64 1010.4
20260903233511 90 148 8.7 13.0 0.00 0.00 0.00 63 1010.4
20260903233105 90 136 3.5 13.0 0.00 0.00 0.00 63 1010.3
20260903232543 90 111 7.0 13.0 0.00 0.00 0.00 63 1010.3
20260903232021 90 128 6.1 13.0 0.00 0.00 0.00 63 1010.2
20260903231513 90 146 5.2 14.8 0.00 0.00 0.00 64 1010.3
20260903231056 91 132 5.2 14.8 0.00 0.00 0.00 64 1010.2
20260903230534 92 121 4.3 12.2 0.00 0.00 0.00 65 1010.2
20260903230043 92 119 5.2 13.9 0.00 0.00 0.00 64 1010.1
20260903225502 93 124 7.0 13.9 0.00 0.00 0.00 63 1010.0
20260903225043 93 113 2.6 11.3 0.00 0.00 0.00 62 1009.8
20260903224532 93 58 3.5 11.3 0.00 0.00 0.00 61 1009.9
20260903224008 93 128 3.5 14.8 0.00 0.00 0.00 61 1009.8
20260903223550 93 129 6.1 14.8 0.00 0.00 0.00 60 1009.8
20260903223040 94 103 4.3 12.2 0.00 0.00 0.00 59 1009.8
20260903222516 94 137 5.2 15.6 0.00 0.00 0.00 58 1009.9
20260903222057 94 140 4.3 13.0 0.00 0.00 0.00 59 1009.8
20260903221547 95 101 4.3 10.4 0.00 0.00 0.00 57 1009.8
20260903221026 95 145 4.3 11.3 0.00 0.00 0.00 57 1009.8
20260903220604 95 136 4.3 11.3 0.00 0.00 0.00 57 1009.8
20260903220105 95 119 4.3 9.6 0.00 0.00 0.00 56 1009.8
20260903215531 94 120 3.5 12.2 0.00 0.00 0.00 57 1009.8
20260903215006 94 117 5.2 13.0 0.00 0.00 0.00 56 1009.8
20260903214602 93 59 3.5 13.0 0.00 0.00 0.00 56 1009.7
20260903214038 93 155 3.5 8.7 0.00 0.00 0.00 56 1009.8
20260903213517 93 80 3.5 10.4 0.00 0.00 0.00 56 1009.9
20260903213001 93 130 3.5 11.3 0.00 0.00 0.00 56 1010.0
20260903212542 94 134 4.3 11.3 0.00 0.00 0.00 56 1010.0
20260903212021 94 121 5.2 10.4 0.00 0.00 0.00 56 1010.0
20260903211509 94 138 3.5 9.6 0.00 0.00 0.00 56 1010.0
20260903211050 94 127 3.5 10.4 0.00 0.00 0.00 56 1010.1
20260903210527 94 163 4.3 10.4 0.00 0.00 0.00 56 1010.1
20260903210018 94 169 2.6 7.8 0.00 0.00 0.00 55 1010.2
20260903205559 95 62 2.6 9.6 0.00 0.00 0.00 55 1010.1
20260903205035 95 132 3.5 9.6 0.00 0.00 0.00 55 1010.2
20260903204528 95 93 3.5 13.0 0.00 0.00 0.00 55 1010.3
20260903204003 95 78 4.3 13.0 0.00 0.00 0.00 55 1010.3
20260903203545 95 148 2.6 13.0 0.00 0.00 0.00 54 1010.3
20260903203034 95 131 5.2 13.0 0.00 0.00 0.00 54 1010.6
20260903202511 95 106 4.3 10.4 0.00 0.00 0.00 55 1010.8
20260903202052 95 147 2.6 10.4 0.00 0.00 0.00 56 1010.9
20260903201543 95 132 3.5 10.4 0.00 0.00 0.00 55 1011.0
20260903201019 95 54 2.6 8.7 0.00 0.00 0.00 56 1011.0
20260903200559 95 117 1.7 7.8 0.00 0.00 0.00 56 1011.0
20260903200051 94 134 1.7 8.7 0.00 0.00 0.00 56 1011.1
20260903195526 94 134 1.7 8.7 0.00 0.00 0.00 55 1011.0
20260903195003 93 59 1.7 5.2 0.00 0.00 0.00 58 1011.0
20260903194605 93 123 1.7 6.1 0.00 0.00 0.00 58 1011.1
20260903194035 93 67 1.7 7.0 0.00 0.00 0.00 59 1011.2
20260903193511 92 78 0.9 7.8 0.00 0.00 0.00 60 1011.2
20260903193002 92 89 2.6 8.7 0.00 0.00 0.00 59 1011.4
20260903192545 92 114 2.6 8.7 0.00 0.00 0.00 58 1011.4
20260903192018 92 141 1.7 7.0 0.00 0.00 0.00 58 1011.5
20260903191509 92 126 2.6 7.0 0.00 0.00 0.00 58 1011.5
20260903191051 92 74 1.7 6.1 0.00 0.00 0.00 59 1011.7
20260903190527 92 92 0.0 7.8 0.00 0.00 0.00 60 1011.8
20260903190018 91 118 3.5 7.8 0.00 0.00 0.00 58 1012.0
20260903185559 91 153 0.9 7.8 0.00 0.00 0.00 60 1012.0
20260903185035 91 144 1.7 7.8 0.00 0.00 0.00 59 1012.1
20260903184525 91 152 2.6 7.0 0.00 0.00 0.00 59 1012.1
20260903184005 91 86 0.9 6.1 0.00 0.00 0.00 60 1012.2
20260903183546 91 134 2.6 6.1 0.00 0.00 0.00 59 1012.3
20260903183034 91 87 2.6 7.0 0.00 0.00 0.00 60 1012.4
20260903182511 91 66 2.6 7.0 0.00 0.00 0.00 61 1012.5
20260903182050 91 138 0.9 7.0 0.00 0.00 0.00 61 1012.4
20260903181551 90 80 1.7 7.0 0.00 0.00 0.00 62 1012.5
20260903181020 90 140 2.6 7.0 0.00 0.00 0.00 61 1012.6
20260903180601 90 144 2.6 7.0 0.00 0.00 0.00 61 1012.6
20260903180100 90 123 1.7 6.1 0.00 0.00 0.00 62 1012.7
20260903175529 89 90 1.7 7.8 0.00 0.00 0.00 63 1012.8
20260903175005 89 130 1.7 7.8 0.00 0.00 0.00 63 1012.9
20260903174602 89 98 0.9 6.1 0.00 0.00 0.00 64 1013.0
20260903174040 88 130 1.7 4.3 0.00 0.00 0.00 64 1013.1